View from above orbital plane
|
View from above satellite
|
Ground track
|
The orbit data is extracted from the following two-line orbital elements,
1 25860U 99039A 21018.78516185 .00000010 00000-0 90446-5 0 9993
2 25860 98.1990 47.3518 0000747 98.0974 262.0320 14.76706197157299
Epoch (UTC): | 18 January 2021 18:50:37 |
Eccentricity: | 0.0000747 |
inclination: | 98.1990° |
perigee height: | 639 km |
apogee height: | 640 km |
right ascension of ascending node: | 47.3518° |
argument of perigee: | 98.0974° |
revolutions per day: | 14.76706197 |
mean anomaly at epoch: | 262.0320° |
orbit number at epoch: | 15729 |
The dashed part of the orbit path shows where the satellite is in the earth's shadow,
|
|